DW8816 Weather Reports


time (UTC)temp
C
wind
direction
speed
KPH
gust
KPH
rain 1hr
cm
rain 24hr
cm
rain mn
cm
humidity
%
barometer
mb
20260901164003 21 272 4.8 16.1 0.00 0.00 0.00 58 1018.2
20260901163004 21 284 6.4 20.9 0.00 0.00 0.00 59 1018.4
20260901162004 21 298 4.8 14.5 0.00 0.00 0.00 57 1018.3
20260901161003 21 267 4.8 14.5 0.00 0.00 0.00 58 1018.3
20260901155003 21 269 8.0 19.3 0.00 0.00 0.00 58 1018.5
20260901154003 22 251 6.4 24.1 0.00 0.00 0.00 57 1018.6
20260901153003 22 258 8.0 19.3 0.00 0.00 0.00 57 1018.6
20260901151004 22 306 6.4 16.1 0.00 0.10 0.00 57 1018.5
20260901145003 22 270 6.4 20.9 0.00 0.10 0.00 56 1018.6
20260901144003 22 259 8.0 20.9 0.00 0.10 0.00 55 1018.6
20260901143003 23 265 6.4 19.3 0.00 0.10 0.00 53 1018.7
20260901141003 22 253 6.4 24.1 0.00 0.20 0.00 55 1018.8
20260901140004 21 282 4.8 12.9 0.00 0.20 0.00 59 1018.7
20260901135003 21 296 4.8 12.9 0.00 0.20 0.00 58 1018.8
20260901134004 21 272 6.4 14.5 0.00 0.20 0.00 59 1018.9
20260901133003 21 265 4.8 17.7 0.00 0.20 0.00 59 1019.0
20260901132003 21 265 6.4 16.1 0.00 0.20 0.00 58 1018.9
20260901131003 21 254 6.4 17.7 0.00 0.20 0.00 58 1019.0
20260901130004 22 250 8.0 22.5 0.00 0.20 0.00 58 1019.1
20260901125003 21 255 6.4 24.1 0.00 0.20 0.00 58 1019.0
20260901123003 22 249 6.4 20.9 0.00 0.20 0.00 57 1019.3
20260901122003 22 276 4.8 12.9 0.00 0.20 0.00 59 1019.4
20260901121005 21 295 6.4 12.9 0.00 0.20 0.00 59 1019.4
20260901120004 21 264 4.8 16.1 0.00 0.20 0.00 57 1019.5
20260901115003 21 227 6.4 17.7 0.00 0.20 0.00 59 1019.4
20260901114003 21 251 4.8 17.7 0.00 0.20 0.00 59 1019.3
20260901113004 20 287 4.8 11.3 0.00 0.20 0.00 61 1019.5
20260901112004 20 279 8.0 19.3 0.00 0.20 0.00 61 1019.6
20260901111004 20 259 4.8 19.3 0.00 0.20 0.00 60 1019.7
20260901110004 20 289 6.4 17.7 0.00 0.20 0.00 61 1019.6
20260901102003 20 282 6.4 19.3 0.00 0.20 0.00 64 1019.9
20260901101003 20 285 4.8 14.5 0.00 0.20 0.00 64 1019.9
20260901094004 19 255 4.8 14.5 0.00 0.20 0.00 67 1020.1
20260901093003 18 240 4.8 12.9 0.00 0.20 0.00 68 1020.1
20260901092003 18 250 3.2 12.9 0.00 0.20 0.00 69 1020.1
20260901091003 18 255 3.2 9.7 0.00 0.20 0.00 71 1020.2
20260901090005 18 254 4.8 16.1 0.00 0.23 0.00 73 1020.2
20260901085004 17 259 4.8 11.3 0.00 0.23 0.00 75 1020.1
20260901084003 17 269 4.8 14.5 0.00 0.23 0.00 77 1020.1
20260901082005 16 236 3.2 9.7 0.00 0.23 0.00 80 1019.9
20260901081003 16 258 1.6 8.0 0.00 0.23 0.00 82 1020.0
20260901080003 15 269 1.6 6.4 0.00 0.23 0.00 84 1019.8
20260901074003 14 270 1.6 4.8 0.00 0.23 0.00 86 1019.8
20260901073003 14 0 0.0 3.2 0.00 0.23 0.00 86 1019.7
20260901072003 13 344 0.0 6.4 0.00 0.23 0.00 88 1019.7
20260901071003 13 0 0.0 3.2 0.00 0.23 0.00 90 1019.7
20260901065003 12 0 0.0 1.6 0.00 0.23 0.00 94 1019.7
20260901064003 12 0 0.0 1.6 0.00 0.23 0.00 94 1019.6
20260901063003 11 0 0.0 4.8 0.00 0.23 0.00 95 1019.5
20260901062003 11 0 0.0 0.0 0.00 0.23 0.00 94 1019.4
20260901061003 11 0 0.0 0.0 0.00 0.23 0.00 94 1019.4
20260901060003 11 0 0.0 0.0 0.00 0.23 0.00 94 1019.3
20260901055004 11 0 0.0 0.0 0.00 0.23 0.00 94 1019.3
20260901054004 11 0 0.0 0.0 0.00 0.23 0.00 94 1019.2
20260901052004 11 0 0.0 3.2 0.00 0.23 0.00 94 1019.0
20260901051003 11 0 0.0 1.6 0.00 0.23 0.00 94 1018.9
20260901050003 11 0 0.0 0.0 0.00 0.23 0.00 94 1018.9
20260901045003 11 0 0.0 1.6 0.00 0.23 0.00 94 1018.9
20260901044003 11 0 0.0 3.2 0.00 0.23 0.00 94 1018.9
20260901043003 11 0 0.0 1.6 0.00 0.23 0.00 93 1018.8
20260901042003 11 0 0.0 0.0 0.00 0.23 0.00 93 1018.7
20260901041003 11 0 0.0 1.6 0.00 0.23 0.00 93 1018.6
20260901040004 11 0 0.0 0.0 0.00 0.23 0.00 93 1018.6
20260901035003 11 0 0.0 3.2 0.00 0.23 0.00 93 1018.6
20260901034004 11 0 0.0 1.6 0.00 0.23 0.00 93 1018.6
20260901033003 11 0 0.0 3.2 0.00 0.23 0.00 92 1018.6
20260901032003 11 0 0.0 0.0 0.00 0.23 0.00 92 1018.6
20260901031003 11 0 0.0 0.0 0.00 0.23 0.00 92 1018.5
20260901025004 11 0 0.0 0.0 0.00 0.23 0.00 91 1018.4
20260901024003 11 0 0.0 0.0 0.00 0.23 0.00 91 1018.4
20260901023004 12 0 0.0 0.0 0.00 0.23 0.00 91 1018.5
20260901021003 12 0 0.0 0.0 0.00 0.23 0.00 90 1018.5
20260901015003 12 0 0.0 0.0 0.00 0.23 0.00 89 1018.6
20260901014003 12 0 0.0 0.0 0.00 0.28 0.00 89 1018.5
20260901013003 12 0 0.0 0.0 0.00 0.28 0.00 88 1018.5
20260901011003 13 0 0.0 0.0 0.00 0.28 0.00 87 1018.3
20260901010003 13 0 0.0 3.2 0.00 0.28 0.00 87 1018.3
20260901005004 13 0 0.0 4.8 0.00 0.28 0.00 87 1018.4
20260901004003 13 0 0.0 1.6 0.00 0.30 0.00 86 1018.4
20260901003004 13 0 0.0 1.6 0.00 0.30 0.00 86 1018.3
20260901002003 13 0 0.0 4.8 0.00 0.30 0.00 85 1018.2
20260901001003 13 0 0.0 3.2 0.00 0.30 0.00 85 1018.2
20260901000003 13 0 0.0 4.8 0.00 0.30 0.00 85 1018.2
20260831235004 14 0 0.0 6.4 0.00 0.30 0.00 84 1018.2
20260831234003 14 0 0.0 3.2 0.00 0.30 0.00 84 1018.1
20260831233003 14 0 0.0 3.2 0.00 0.30 0.00 84 1017.9
20260831232003 14 0 0.0 4.8 0.00 0.30 0.00 83 1018.0
20260831230005 15 313 0.0 4.8 0.00 0.30 0.00 83 1017.9
20260831224004 15 312 0.0 4.8 0.00 0.30 0.30 83 1018.0
20260831223003 15 312 1.6 4.8 0.00 0.30 0.30 83 1017.8
20260831222003 15 313 1.6 6.4 0.00 0.30 0.30 83 1017.7
20260831221003 15 312 1.6 8.0 0.00 0.30 0.30 83 1017.7
20260831215003 15 313 1.6 3.2 0.00 0.30 0.30 82 1017.7
20260831214004 15 312 1.6 4.8 0.00 0.30 0.30 81 1017.5
20260831213003 15 312 1.6 6.4 0.00 0.30 0.30 81 1017.5
20260831212003 15 312 1.6 4.8 0.00 0.30 0.30 80 1017.3
20260831211004 16 314 3.2 8.0 0.00 0.30 0.30 80 1017.2
20260831210003 16 312 3.2 9.7 0.00 0.30 0.30 80 1017.1
20260831205003 16 312 3.2 12.9 0.00 0.30 0.30 80 1017.1
20260831204004 16 314 3.2 8.0 0.00 0.30 0.30 80 1016.9